Time,TemperatureF,DewpointF,PressureIn,WindDirection,WindDirectionDegrees,WindSpeedMPH,WindSpeedGustMPH,Humidity,HourlyPrecipIn,Conditions,Clouds,dailyrainin,SoftwareType,DateUTC
2013-01-31 07:00:00,55.0,-99.9,30.26,SSW,206,7.0,8.0,-999,-99.99,,,-99.99,,2013-01-31 13:00:00,
2013-01-31 08:00:00,56.0,-99.9,30.28,SSW,211,6.0,7.0,-999,-99.99,,,-99.99,,2013-01-31 14:00:00,
2013-01-31 08:32:00,56.0,-99.9,30.28,SSW,211,6.0,7.0,-999,-99.99,,,-99.99,,2013-01-31 14:32:00,
2013-01-31 08:42:00,56.0,-99.9,30.28,SSW,211,6.0,7.0,-999,-99.99,,,-99.99,,2013-01-31 14:42:00,
2013-01-31 08:52:00,56.0,-99.9,30.28,SSW,211,6.0,7.0,-999,-99.99,,,-99.99,,2013-01-31 14:52:00,
2013-01-31 09:00:00,59.0,-99.9,30.30,SSW,195,7.0,9.0,-999,-99.99,,,-99.99,,2013-01-31 15:00:00,
2013-01-31 09:23:00,59.0,-99.9,30.30,SSW,195,7.0,9.0,-999,-99.99,,,-99.99,,2013-01-31 15:23:00,
2013-01-31 09:32:00,59.0,-99.9,30.30,SSW,195,7.0,9.0,-999,-99.99,,,-99.99,,2013-01-31 15:32:00,
2013-01-31 09:42:00,59.0,-99.9,30.30,SSW,195,7.0,9.0,-999,-99.99,,,-99.99,,2013-01-31 15:42:00,
2013-01-31 09:52:00,59.0,-99.9,30.30,SSW,195,7.0,9.0,-999,-99.99,,,-99.99,,2013-01-31 15:52:00,
2013-01-31 10:00:00,60.0,-99.9,30.32,SW,227,9.0,12.0,-999,-99.99,,,-99.99,,2013-01-31 16:00:00,
2013-01-31 10:33:00,60.0,-99.9,30.32,SW,227,9.0,12.0,-999,-99.99,,,-99.99,,2013-01-31 16:33:00,
2013-01-31 10:42:00,60.0,-99.9,30.32,SW,227,9.0,12.0,-999,-99.99,,,-99.99,,2013-01-31 16:42:00,
2013-01-31 10:52:00,60.0,-99.9,30.32,SW,227,9.0,12.0,-999,-99.99,,,-99.99,,2013-01-31 16:52:00,
2013-01-31 11:00:00,61.0,-99.9,30.32,SW,217,9.0,14.0,-999,-99.99,,,-99.99,,2013-01-31 17:00:00,
2013-01-31 11:32:00,61.0,-99.9,30.32,SW,217,9.0,14.0,-999,-99.99,,,-99.99,,2013-01-31 17:32:00,
2013-01-31 11:44:00,61.0,-99.9,30.32,SW,217,9.0,14.0,-999,-99.99,,,-99.99,,2013-01-31 17:44:00,
2013-01-31 11:53:00,61.0,-99.9,30.32,SW,217,9.0,14.0,-999,-99.99,,,-99.99,,2013-01-31 17:53:00,
2013-01-31 12:00:00,62.0,-99.9,30.32,WSW,239,11.0,13.0,-999,-99.99,,,-99.99,,2013-01-31 18:00:00,
2013-01-31 12:22:00,62.0,-99.9,30.32,WSW,239,11.0,13.0,-999,-99.99,,,-99.99,,2013-01-31 18:22:00,
2013-01-31 12:32:00,62.0,-99.9,30.32,WSW,239,11.0,13.0,-999,-99.99,,,-99.99,,2013-01-31 18:32:00,
2013-01-31 12:43:00,62.0,-99.9,30.32,WSW,239,11.0,13.0,-999,-99.99,,,-99.99,,2013-01-31 18:43:00,
2013-01-31 12:52:00,62.0,-99.9,30.32,WSW,239,11.0,13.0,-999,-99.99,,,-99.99,,2013-01-31 18:52:00,
2013-01-31 13:00:00,61.0,-99.9,30.30,SW,223,11.0,15.0,-999,-99.99,,,-99.99,,2013-01-31 19:00:00,
2013-01-31 13:33:00,61.0,-99.9,30.30,SW,223,11.0,15.0,-999,-99.99,,,-99.99,,2013-01-31 19:33:00,
2013-01-31 13:43:00,61.0,-99.9,30.30,SW,223,11.0,15.0,-999,-99.99,,,-99.99,,2013-01-31 19:43:00,
2013-01-31 13:52:00,61.0,-99.9,30.30,SW,223,11.0,15.0,-999,-99.99,,,-99.99,,2013-01-31 19:52:00,
2013-01-31 14:00:00,62.0,-99.9,30.27,SW,216,10.0,19.0,-999,-99.99,,,-99.99,,2013-01-31 20:00:00,
2013-01-31 14:32:00,62.0,-99.9,30.27,SW,216,10.0,19.0,-999,-99.99,,,-99.99,,2013-01-31 20:32:00,
2013-01-31 14:42:00,62.0,-99.9,30.27,SW,216,10.0,19.0,-999,-99.99,,,-99.99,,2013-01-31 20:42:00,
2013-01-31 14:53:00,62.0,-99.9,30.27,SW,216,10.0,19.0,-999,-99.99,,,-99.99,,2013-01-31 20:53:00,
2013-01-31 15:00:00,62.0,-99.9,30.24,South,171,13.0,16.0,-999,-99.99,,,-99.99,,2013-01-31 21:00:00,
2013-01-31 15:32:00,62.0,-99.9,30.24,South,171,13.0,16.0,-999,-99.99,,,-99.99,,2013-01-31 21:32:00,
2013-01-31 15:42:00,62.0,-99.9,30.24,South,171,13.0,16.0,-999,-99.99,,,-99.99,,2013-01-31 21:42:00,
2013-01-31 15:52:00,62.0,-99.9,30.24,South,171,13.0,16.0,-999,-99.99,,,-99.99,,2013-01-31 21:52:00,
2013-01-31 16:00:00,62.0,-99.9,30.24,South,178,11.0,13.0,-999,-99.99,,,-99.99,,2013-01-31 22:00:00,
2013-01-31 16:33:00,62.0,-99.9,30.24,South,178,11.0,13.0,-999,-99.99,,,-99.99,,2013-01-31 22:33:00,
2013-01-31 16:42:00,62.0,-99.9,30.24,South,178,11.0,13.0,-999,-99.99,,,-99.99,,2013-01-31 22:42:00,
2013-01-31 16:52:00,62.0,-99.9,30.24,South,178,11.0,13.0,-999,-99.99,,,-99.99,,2013-01-31 22:52:00,
2013-01-31 17:00:00,62.0,-99.9,30.24,South,177,13.0,15.0,-999,-99.99,,,-99.99,,2013-01-31 23:00:00,
2013-01-31 17:32:00,62.0,-99.9,30.24,South,177,13.0,15.0,-999,-99.99,,,-99.99,,2013-01-31 23:32:00,
2013-01-31 17:43:00,62.0,-99.9,30.24,South,177,13.0,15.0,-999,-99.99,,,-99.99,,2013-01-31 23:43:00,
2013-01-31 17:52:00,62.0,-99.9,30.24,South,177,13.0,15.0,-999,-99.99,,,-99.99,,2013-01-31 23:52:00,
2013-01-31 18:00:00,61.0,-99.9,30.24,South,172,11.0,14.0,-999,-99.99,,,-99.99,,2013-02-01 00:00:00,
2013-01-31 18:32:00,61.0,-99.9,30.24,South,172,11.0,14.0,-999,-99.99,,,-99.99,,2013-02-01 00:32:00,
2013-01-31 18:42:00,61.0,-99.9,30.24,South,172,11.0,14.0,-999,-99.99,,,-99.99,,2013-02-01 00:42:00,
2013-01-31 18:52:00,61.0,-99.9,30.24,South,172,11.0,14.0,-999,-99.99,,,-99.99,,2013-02-01 00:52:00,
2013-01-31 19:00:00,61.0,-99.9,30.25,SSE,165,11.0,14.0,-999,-99.99,,,-99.99,,2013-02-01 01:00:00,
2013-01-31 19:32:00,61.0,-99.9,30.25,SSE,165,11.0,14.0,-999,-99.99,,,-99.99,,2013-02-01 01:32:00,
2013-01-31 19:42:00,61.0,-99.9,30.25,SSE,165,11.0,14.0,-999,-99.99,,,-99.99,,2013-02-01 01:42:00,
2013-01-31 19:52:00,61.0,-99.9,30.25,SSE,165,11.0,14.0,-999,-99.99,,,-99.99,,2013-02-01 01:52:00,
2013-01-31 20:00:00,61.0,-99.9,30.27,SSE,166,11.0,12.0,-999,-99.99,,,-99.99,,2013-02-01 02:00:00,
2013-01-31 20:32:00,61.0,-99.9,30.27,SSE,166,11.0,12.0,-999,-99.99,,,-99.99,,2013-02-01 02:32:00,
2013-01-31 20:42:00,61.0,-99.9,30.27,SSE,166,11.0,12.0,-999,-99.99,,,-99.99,,2013-02-01 02:42:00,
2013-01-31 20:52:00,61.0,-99.9,30.27,SSE,166,11.0,12.0,-999,-99.99,,,-99.99,,2013-02-01 02:52:00,
2013-01-31 21:00:00,61.0,-99.9,30.28,South,169,10.0,12.0,-999,-99.99,,,-99.99,,2013-02-01 03:00:00,
2013-01-31 21:33:00,61.0,-99.9,30.28,South,169,10.0,12.0,-999,-99.99,,,-99.99,,2013-02-01 03:33:00,
2013-01-31 21:42:00,61.0,-99.9,30.28,South,169,10.0,12.0,-999,-99.99,,,-99.99,,2013-02-01 03:42:00,
2013-01-31 21:52:00,61.0,-99.9,30.28,South,169,10.0,12.0,-999,-99.99,,,-99.99,,2013-02-01 03:52:00,
2013-01-31 22:00:00,61.0,-99.9,30.29,SSE,152,9.0,10.0,-999,-99.99,,,-99.99,,2013-02-01 04:00:00,
2013-01-31 22:32:00,61.0,-99.9,30.29,SSE,152,9.0,10.0,-999,-99.99,,,-99.99,,2013-02-01 04:32:00,
2013-01-31 22:42:00,61.0,-99.9,30.29,SSE,152,9.0,10.0,-999,-99.99,,,-99.99,,2013-02-01 04:42:00,
2013-01-31 22:52:00,61.0,-99.9,30.29,SSE,152,9.0,10.0,-999,-99.99,,,-99.99,,2013-02-01 04:52:00,
2013-01-31 23:00:00,60.0,-99.9,30.30,SSE,150,7.0,9.0,-999,-99.99,,,-99.99,,2013-02-01 05:00:00,
2013-01-31 23:32:00,60.0,-99.9,30.30,SSE,150,7.0,9.0,-999,-99.99,,,-99.99,,2013-02-01 05:32:00,
2013-01-31 23:42:00,60.0,-99.9,30.30,SSE,150,7.0,9.0,-999,-99.99,,,-99.99,,2013-02-01 05:42:00,
2013-01-31 23:52:00,60.0,-99.9,30.30,SSE,150,7.0,9.0,-999,-99.99,,,-99.99,,2013-02-01 05:52:00,